Terminal Aerodrome Forecast
Issued by NWS Upton, NY

Home | Current Version | Previous Version | Text Only | Print | Product List | Glossary On
Versions: 1 2 3 4 5 6 7 8 9 10 11 12 13 14 15 16 17 18 19 20 21 22 23 24 25 26 27
000
FTUS41 KOKX 300400 AAB
TAFLGA
TAF AMD
KLGA 300457Z 3005/3024 20010KT 4SM -SN SCT015 BKN025
      TEMPO 3005/3008 2SM -SN BKN015
     FM301100 25009KT 1SM -SN BKN007
     FM301600 31015G23KT P6SM VCSH SCT015 BKN025
     FM301800 31017G26KT P6SM SCT025 BKN035
     FM302200 31022G32KT P6SM SCT030 SCT250=

USA.gov is the U.S. government's official web portal to all federal, state and local government web resources and services.